[[{"header":{"parameterUnit":"m.s-1","parameterCategory":1,"la1":30.2991,"la2":30.254,"lo1":-89.0895,"lo2":-89.0444,"dy":0.0017,"dx":0.0017,"nx":28,"ny":28,"refTime":"2023-10-04T21:00:00:Z","depth":0,"parameterNumber":2,"parameterNumberName":"U-component_of_WINDS"},"data":[0,0,0,0,0,0,0,0,0,0,0,0,0,0,0,0,0,0,0,0,0,0,0,0,0,0,0,0,0,0,0,0,0,0,0,0,0,0,0,0,0,0,0,0,0,0,0,0,0,0,0,0,0,0,0,0,0,0,-0.226,-0.2261,0,-0.2384,-0.2385,-0.2387,-0.2436,-0.2436,-0.2435,-0.2435,-0.257,-0.2574,-0.2578,0,0,0,0,0,0,0,0,0,0,0,0,0,-0.2073,-0.2076,-0.226,-0.2261,-0.2263,-0.2384,-0.2386,-0.2387,-0.2436,-0.2436,-0.2435,-0.2435,-0.2569,-0.2573,-0.2578,0,0,0,0,0,0,0,0,0,0,0,0,0,-0.2171,-0.2077,-0.2259,-0.2301,-0.2306,-0.2383,-0.2386,-0.2388,-0.2436,-0.2436,-0.2435,-0.2435,-0.2567,-0.2573,-0.2579,-0.2625,0,0,-0.2596,-0.2599,0,0,0,0,0,0,0,0,-0.2166,-0.2178,-0.2294,-0.2299,-0.2304,-0.2394,-0.2369,-0.2468,-0.2436,-0.2387,-0.2435,-0.2434,-0.2512,-0.2523,-0.2547,-0.2631,-0.2637,-0.2597,-0.2601,-0.2603,-0.2605,0,0,0,0,0,0,0,-0.2159,-0.2173,-0.2309,-0.2295,-0.2302,-0.2317,-0.233,-0.2388,-0.2451,-0.2391,-0.2395,-0.2409,-0.2515,-0.2541,-0.2551,-0.2639,-0.2597,-0.2602,-0.2606,-0.2608,-0.277,-0.2771,0,0,0,0,0,0,-0.2144,-0.2167,-0.2305,-0.2313,-0.2232,-0.2321,-0.2336,-0.2366,-0.2451,-0.2463,-0.2409,-0.2411,-0.2532,-0.2544,-0.2556,-0.2617,-0.2603,-0.2609,-0.2612,-0.2769,-0.277,-0.2771,0,0,0,0,0,0,-0.2139,-0.2156,-0.23,-0.2241,-0.226,-0.2324,-0.2358,-0.2368,-0.2395,-0.2464,-0.2476,-0.2424,-0.2532,-0.2547,-0.2607,-0.2622,-0.2611,-0.2617,-0.2768,-0.2769,-0.2771,-0.2739,0,0,0,0,0,0,-0.2134,-0.2154,-0.217,-0.2241,-0.2263,-0.2347,-0.2359,-0.2371,-0.2404,-0.2407,-0.2481,-0.2493,-0.2533,-0.2598,-0.2613,-0.263,-0.2621,-0.2767,-0.2769,-0.277,-0.2739,-0.2739,-0.2739,0,0,0,0,0,-0.2127,-0.2158,-0.2171,-0.2187,-0.2285,-0.2348,-0.2361,-0.2404,-0.2405,-0.2423,-0.2468,-0.2491,-0.2618,-0.2604,-0.2621,-0.264,-0.2767,-0.2768,-0.277,-0.2739,-0.2739,-0.2739,0,0,0,0,0,0,-0.209,-0.2168,-0.2183,-0.2237,-0.2285,-0.2356,-0.238,-0.2402,-0.2453,-0.2454,-0.2507,-0.2524,-0.258,-0.2616,-0.2599,-0.2691,-0.2694,-0.2699,-0.2665,-0.2665,-0.2665,-0.2656,-0.2626,0,0,0,0,0,-0.2087,-0.2129,-0.2196,-0.2238,-0.2261,-0.2316,-0.2345,-0.2374,-0.2427,-0.2448,-0.2497,-0.255,-0.2603,-0.2636,-0.2688,-0.2744,-0.2763,-0.2766,-0.2766,-0.2766,-0.277,-0.2804,-0.2807,-0.2777,-0.2777,-0.2777,0,0,-0.2084,-0.2132,-0.2155,-0.2231,-0.2272,-0.2317,-0.2333,-0.238,-0.2415,-0.2456,-0.2515,-0.2553,-0.2616,-0.2675,-0.2703,-0.2707,-0.2782,-0.2768,-0.2767,-0.2772,-0.2807,-0.2809,-0.2812,-0.2778,-0.2778,-0.2778,0,0,-0.21,-0.214,-0.2179,-0.2219,-0.2279,-0.2316,-0.2325,-0.2393,-0.2419,-0.2478,-0.2511,-0.2555,-0.2643,-0.2686,-0.272,-0.2753,-0.2777,-0.2769,-0.2769,-0.2802,-0.2804,-0.2807,-0.282,-0.2824,-0.2773,-0.2773,-0.2773,0,-0.2089,-0.2155,-0.2197,-0.2241,-0.2275,-0.2312,-0.2354,-0.2391,-0.2467,-0.249,-0.2493,-0.2604,-0.2649,-0.272,-0.2727,-0.2753,-0.2767,-0.2761,-0.28,-0.2803,-0.2806,-0.2819,-0.2824,-0.2771,-0.2771,-0.2772,-0.2772,0,-0.2139,-0.2185,-0.221,-0.2278,-0.2315,-0.2358,-0.2408,-0.2441,-0.2466,-0.2503,-0.2565,-0.262,-0.2684,-0.2702,-0.2729,-0.2777,-0.2777,-0.2789,-0.2794,-0.2807,-0.282,-0.2826,-0.2769,-0.277,-0.277,-0.2771,0,0,-0.2136,-0.2227,-0.2235,-0.2268,-0.2337,-0.2375,-0.2421,-0.248,-0.2508,-0.2559,-0.26,-0.2674,-0.2685,-0.2724,-0.2755,-0.2784,-0.2808,-0.2793,-0.2795,-0.2795,-0.2867,-0.2859,-0.2864,-0.2824,-0.2825,-0.2826,-0.2862,0,-0.2163,-0.2243,-0.2282,-0.2347,-0.2391,-0.2427,-0.2467,-0.2515,-0.2552,-0.2597,-0.2638,-0.2689,-0.27,-0.2723,-0.2753,-0.2799,-0.2824,-0.2797,-0.2866,-0.2867,-0.2849,-0.2871,-0.2862,-0.2893,-0.2868,-0.2869,-0.2869,0,-0.2205,-0.2253,-0.2321,-0.2385,-0.2406,-0.244,-0.2499,-0.2541,-0.2597,-0.2622,-0.2664,-0.2695,-0.2747,-0.2747,-0.2821,-0.2802,-0.2833,-0.286,-0.2862,-0.2871,-0.287,-0.2882,-0.2904,-0.2909,-0.2878,-0.2877,-0.2877,0,-0.2198,-0.2279,-0.2331,-0.2357,-0.2434,-0.2458,-0.2491,-0.2547,-0.2581,-0.2633,-0.2656,-0.2715,-0.2747,-0.2793,-0.284,-0.2835,-0.291,-0.2914,-0.2934,-0.2933,-0.295,-0.2948,-0.2979,-0.2967,-0.2967,-0.2967,-0.2966,0,-0.2224,-0.2265,-0.2328,-0.236,-0.2408,-0.2453,-0.25,-0.2537,-0.2586,-0.2628,-0.2663,-0.2703,-0.2761,-0.2808,-0.2845,-0.2902,-0.2916,-0.2939,-0.2949,-0.2937,-0.2934,-0.2959,-0.2958,-0.2968,-0.2968,-0.2967,-0.2967,0,-0.2224,-0.2268,-0.2327,-0.2394,-0.2412,-0.2444,-0.2503,-0.2537,-0.2574,-0.2627,-0.2642,-0.2702,-0.2759,-0.281,-0.2886,-0.2911,-0.297,-0.2981,-0.295,-0.2956,-0.2974,-0.2972,-0.3022,-0.3032,-0.3012,-0.3012,-0.3012,0,-0.2239,-0.227,-0.234,-0.2369,-0.2401,-0.2448,-0.2482,-0.2529,-0.2563,-0.263,-0.2657,-0.2716,-0.2766,-0.2857,-0.2909,-0.2968,-0.2982,-0.2996,-0.2992,-0.2979,-0.2984,-0.2982,-0.2987,-0.2996,-0.2996,-0.2996,-0.2996,0,-0.226,-0.228,-0.2326,-0.2381,-0.242,-0.2465,-0.2512,-0.2535,-0.2591,-0.2629,-0.2686,-0.2725,-0.2802,-0.2862,-0.2927,-0.2965,-0.2991,-0.2996,-0.3005,-0.2993,-0.2975,-0.2987,-0.2951,-0.2996,-0.2996,-0.2996,-0.2996,-0.2996,-0.2269,-0.2299,-0.2353,-0.2404,-0.2443,-0.2486,-0.2521,-0.2563,-0.261,-0.2675,-0.2701,-0.276,-0.2818,-0.2907,-0.2945,-0.2994,-0.2999,-0.301,-0.3014,-0.3016,-0.3015,-0.2965,-0.3006,-0.3006,-0.3006,-0.3006,-0.3006,0,-0.2294,-0.233,-0.2376,-0.2439,-0.248,-0.2497,-0.255,-0.2584,-0.2635,-0.2685,-0.2733,-0.28,-0.2858,-0.2915,-0.2976,-0.3005,-0.3018,-0.302,-0.3019,-0.3028,-0.3006,-0.2993,-0.3007,-0.3007,-0.3007,-0.3007,-0.3007,-0.3007,-0.2312,-0.2364,-0.239,-0.2463,-0.25,-0.2556,-0.2585,-0.2626,-0.2667,-0.2739,-0.2786,-0.2821,-0.2875,-0.2941,-0.2996,-0.3011,-0.3033,-0.3031,-0.305,-0.3029,-0.3029,-0.3028,-0.3017,-0.3035,-0.3035,-0.3068,-0.3068,-0.3068]},{"header":{"parameterUnit":"m.s-1","parameterCategory":1,"la1":30.2991,"la2":30.254,"lo1":-89.0895,"lo2":-89.0444,"dy":0.0017,"dx":0.0017,"nx":28,"ny":28,"refTime":"2023-10-04T21:00:00:Z","depth":0,"parameterNumber":3,"parameterNumberName":"V-component_of_WINDS"},"data":[0,0,0,0,0,0,0,0,0,0,0,0,0,0,0,0,0,0,0,0,0,0,0,0,0,0,0,0,0,0,0,0,0,0,0,0,0,0,0,0,0,0,0,0,0,0,0,0,0,0,0,0,0,0,0,0,0,0,4.7346,4.7347,0,4.7401,4.7402,4.7402,4.7361,4.7359,4.7358,4.7356,4.7408,4.7411,4.7414,0,0,0,0,0,0,0,0,0,0,0,0,0,4.72,4.7203,4.7346,4.7347,4.7348,4.7401,4.7402,4.7403,4.7361,4.7359,4.7357,4.7355,4.7407,4.741,4.7414,0,0,0,0,0,0,0,0,0,0,0,0,0,4.726,4.7204,4.7346,4.7334,4.7333,4.7401,4.7402,4.7403,4.7362,4.7359,4.7357,4.7354,4.7405,4.741,4.7414,4.7496,0,0,4.7428,4.743,0,0,0,0,0,0,0,0,4.7257,4.7265,4.7335,4.7335,4.7334,4.7372,4.7369,4.7434,4.7363,4.7351,4.7356,4.7353,4.7398,4.7403,4.7419,4.7498,4.7501,4.7429,4.7431,4.7433,4.7435,0,0,0,0,0,0,0,4.7253,4.7263,4.7368,4.7336,4.7335,4.7323,4.7329,4.7381,4.7388,4.7352,4.7349,4.7356,4.7397,4.7414,4.7419,4.7501,4.7429,4.7433,4.7435,4.7437,4.7649,4.7652,0,0,0,0,0,0,4.725,4.726,4.7366,4.7369,4.7288,4.7328,4.7335,4.7362,4.7388,4.7389,4.7358,4.7354,4.7408,4.7414,4.7421,4.7517,4.7433,4.7438,4.744,4.7646,4.765,4.7653,0,0,0,0,0,0,4.7247,4.726,4.7364,4.7314,4.7326,4.7334,4.7365,4.7365,4.7382,4.7393,4.7393,4.7375,4.7406,4.7415,4.7478,4.7519,4.744,4.7444,4.7643,4.7647,4.7651,4.7711,0,0,0,0,0,0,4.7243,4.726,4.7292,4.7315,4.7329,4.7421,4.7368,4.7368,4.7391,4.7386,4.7409,4.741,4.7405,4.7471,4.7482,4.7524,4.7447,4.7639,4.7645,4.765,4.7706,4.7717,4.7727,0,0,0,0,0,4.7238,4.7306,4.7294,4.7307,4.737,4.7424,4.7432,4.7425,4.7394,4.7426,4.7433,4.7409,4.7513,4.7478,4.749,4.7533,4.7636,4.7643,4.7649,4.7701,4.7715,4.7727,0,0,0,0,0,0,4.7287,4.7309,4.7296,4.7374,4.7397,4.7417,4.7457,4.744,4.7472,4.7466,4.7455,4.746,4.7526,4.7536,4.7497,4.7613,4.7569,4.7579,4.7604,4.7618,4.7628,4.7624,4.7451,0,0,0,0,0,4.7307,4.735,4.7367,4.7433,4.7446,4.745,4.7473,4.7466,4.7489,4.7499,4.751,4.7532,4.7569,4.7594,4.7629,4.7707,4.771,4.7742,4.7753,4.7762,4.777,4.781,4.7824,4.7674,4.7674,4.7674,0,0,4.7348,4.7365,4.7393,4.7444,4.7461,4.7504,4.7458,4.7506,4.7538,4.7505,4.7566,4.7574,4.7598,4.7669,4.7701,4.7679,4.7812,4.777,4.7777,4.778,4.7818,4.7833,4.7845,4.7679,4.7678,4.7677,0,0,4.7445,4.7464,4.7521,4.7539,4.7567,4.7568,4.7582,4.7604,4.7609,4.767,4.7646,4.7682,4.7747,4.7765,4.7782,4.7885,4.7864,4.7896,4.7952,4.7991,4.8003,4.8013,4.8049,4.8062,4.7904,4.7904,4.7904,0,4.7493,4.7559,4.7552,4.7602,4.7624,4.7597,4.7654,4.7671,4.7708,4.7723,4.7699,4.7779,4.7793,4.7867,4.7892,4.7907,4.7921,4.7893,4.8002,4.8013,4.8022,4.8056,4.8069,4.7908,4.7908,4.7907,4.7907,0,4.7615,4.7661,4.7703,4.7741,4.7768,4.7821,4.782,4.7847,4.7837,4.7841,4.7902,4.7918,4.7955,4.7972,4.7962,4.8044,4.8029,4.8004,4.796,4.804,4.8072,4.8084,4.7913,4.7912,4.7911,4.791,0,0,4.7745,4.7778,4.7793,4.7809,4.7837,4.7872,4.7922,4.796,4.7983,4.8009,4.805,4.8105,4.8081,4.8101,4.8093,4.8128,4.8206,4.8097,4.8098,4.8116,4.8295,4.8314,4.8329,4.8193,4.8195,4.8197,4.8293,0,4.7843,4.7934,4.7928,4.8012,4.8053,4.8028,4.8071,4.8092,4.8096,4.8131,4.8134,4.8173,4.814,4.8151,4.8184,4.819,4.8242,4.8183,4.8229,4.8231,4.8224,4.8346,4.8366,4.8456,4.8305,4.8307,4.8309,0,4.797,4.8002,4.809,4.811,4.8127,4.8167,4.82,4.8234,4.8256,4.8256,4.8278,4.8264,4.8313,4.8268,4.8334,4.8294,4.8312,4.8318,4.8321,4.8325,4.8274,4.8352,4.8484,4.8497,4.8328,4.8326,4.8325,0,4.8056,4.8119,4.818,4.8195,4.822,4.8248,4.826,4.8279,4.8302,4.833,4.8344,4.8377,4.8395,4.842,4.8415,4.8383,4.8482,4.8437,4.8482,4.8483,4.8504,4.8503,4.8641,4.8517,4.8517,4.8517,4.8517,0,4.8166,4.8221,4.8219,4.8256,4.8316,4.8308,4.8367,4.8375,4.8392,4.8429,4.8408,4.8443,4.8434,4.8468,4.8463,4.8518,4.8527,4.8527,4.8525,4.8529,4.8529,4.854,4.8534,4.852,4.852,4.8519,4.8518,0,4.8271,4.8273,4.8337,4.8356,4.8361,4.8405,4.8419,4.8454,4.8456,4.8503,4.8513,4.8516,4.8555,4.8552,4.8595,4.8592,4.8659,4.865,4.8652,4.865,4.8696,4.8691,4.8846,4.8865,4.8729,4.8731,4.8732,0,4.8342,4.8383,4.8406,4.843,4.8444,4.8482,4.8505,4.8498,4.8522,4.8549,4.858,4.8617,4.8646,4.8708,4.8713,4.8746,4.8737,4.8789,4.8742,4.8744,4.8737,4.8734,4.8738,4.8798,4.8799,4.8801,4.8802,0,4.8466,4.8464,4.8498,4.8533,4.8561,4.8587,4.8611,4.8631,4.8626,4.8654,4.8693,4.8716,4.876,4.8797,4.8827,4.8837,4.8818,4.8817,4.8829,4.8833,4.8832,4.8832,4.8677,4.8813,4.8812,4.8811,4.881,4.881,4.8555,4.859,4.8612,4.865,4.8668,4.869,4.8723,4.8729,4.8763,4.8799,4.8792,4.8836,4.8855,4.8894,4.8907,4.894,4.8921,4.8939,4.8943,4.8948,4.8953,4.8827,4.8946,4.8945,4.8945,4.8945,4.8944,0,4.8678,4.869,4.8725,4.876,4.8789,4.877,4.8795,4.8821,4.886,4.888,4.8909,4.8954,4.8988,4.8996,4.9029,4.9054,4.9046,4.9062,4.906,4.9063,4.8968,4.8954,4.9068,4.9068,4.9068,4.9068,4.9068,4.9068,4.8745,4.8803,4.8804,4.8869,4.888,4.8925,4.894,4.896,4.8976,4.9027,4.9056,4.9061,4.9075,4.9109,4.9139,4.914,4.9152,4.9173,4.917,4.9082,4.9069,4.9058,4.9044,4.9176,4.9176,4.9262,4.9263,4.9263]}]]